Location: Hackberry
(29.5783°N, 96.8797°W)
Time: 23:23:12
(UTC+00:00)

Courier 1B - Pass Details

Date: 12 November 2024
Orbit: 962 x 1208 km, 28.3° (Epoch: 03 December)

Event Time Altitude Azimuth Distance (km) Brightness Sun altitude
Rises 00:26:56 0° 274° (W) 3,635 12.0 -11.9°
Reaches altitude 10° 00:29:33 10° 273° (W) 2,697 11.1 -12.4°
Maximum altitude 00:36:02 71° 190° (S) 1,036 7.7 -13.8°
Enters shadow 00:41:38 16° 108° (ESE) 2,411 9.1 -15.0°
